Location: Unspecified
(0.0000°N, 0.0000°E)
Time: 04:41:48
(UTC+00:00)

deb West Ford - Pass Details

Date: 17 May 2026
Orbit: 2163 x 4941 km, 86.7° (Epoch: 8 June)

Event Time Altitude Azimuth Distance (km) Brightness Sun altitude
Exits shadow 02:39:11 34° 333° (NNW) 3,275 ? -45.7°
Drops below altitude 10° 02:44:33 10° 346° (NNW) 4,701 ? -44.5°
Sets 02:47:43 0° 350° (N) 5,676 ? -43.8°
